Location: Fours
(44.3167°N, 6.7000°E)
Time: 21:11:18
(UTC+00:00)

ISS - Pass Details

Date: 04 October 2021
Orbit: 417 x 423 km, 51.6° (Epoch: 16 October)

Event Time Altitude Azimuth Distance (km) Brightness Sun altitude
Rises 17:30:52 0° 302° (WNW) 2,365 1.1 -4.9°
Reaches altitude 10° 17:32:59 10° 306° (NW) 1,499 0.0 -5.2°
Maximum altitude 17:36:19 58° 27° (NNE) 491 -3.6 -5.8°
Drops below altitude 10° 17:39:38 10° 108° (ESE) 1,495 -1.6 -6.4°
Enters shadow 17:40:09 - 109° (ESE) 1,704 -1.3 -6.5°
